Погода в Возрицах

Россия / Республика Карелия     62°40′32″N   35°23′18″E
темп.,
°C
ветер,
м/с
пор.,
м/с
влажн.,
%
обл.,
%
осадки,
мм/ч
давл.,
гПа
погр.,
м
20 мая, пт
пт2000:00−1с2787100 0.0 1021196
03:00−1с279388 0.0 1022206
06:00+2с37785 0.0 1022410
09:00+6с345481 0.0 10221429
12:00+6с234995 0.1 10221624
15:00+9ссз234286 0.1 10211766
18:00+8с234568 0.0 10201545
21:00+4ссв266888 0.0 1020171
21 мая, сб
сб2100:00+1св247298 0.0 102097
03:000св237689 0.0 102084
06:00+1св356695 0.0 1020256
09:00+6св34465 0.0 10191067
12:00+9св34385 0.0 10181726
15:00+10св453427 0.0 10162046
18:00+9св45345 0.0 10161634
21:00+4св49500 0.0 1017413
22 мая, вс
вс2200:000ссв39700 0.0 1017241
03:00−2ссв38815 0.0 1017188
06:00+1ссв37662 0.0 1016356
09:00+6ссв45420 0.0 10151150
12:00+9ссв46306 0.0 10141580
15:00+10ссв56275 0.0 10131605
18:00+9ссв57315 0.0 10131405
21:00+4ссв49515 0.0 1013460
23 мая, пн
пн2300:000с310720 0.0 1013294
03:00−2с39825 0.0 1014225
06:00+1с48705 0.0 1013373
09:00+7с47370 0.0 1012872
12:00+11с58255 0.0 10111339
15:00+12с58245 0.0 10111528
18:00+11с5830100 0.0 10111247
21:00+5ссв4949100 0.0 1012511
24 мая, вт
вт2400:00+2ссв31070100 0.0 1013355
03:00+1с31175100 0.0 1014344
06:00+2с4106576 0.0 1015386
09:00+8с46387 0.0 1015773
12:00+13с46272 0.0 10151218
15:00+14с46300 0.0 10141572
18:00+14ссв45345 0.0 10151351
21:00+8св25545 0.0 1017108